sat.trackr.live / text

‹ back to catalog

STARLINK-4108

NORAD 52834 · 2022-062E

PAYLOAD ACTIVE UNKNOWN

§ Identity

Operator
Country
US
Launch date
2022-06-17
Launch site
AFETR
Launch vehicle
Mass (kg)
RCS (m²)

Purposes: comms

External: N2YO · Heavens-Above · Gunter

§ Orbital elements

Epoch: 2026-09-19T13:35:40.079040Z

Period
94.01 min
Inclination
53.1588°
Eccentricity
0.0001319
Mean motion
15.31699140 rev/d
Perigee alt
469.8 km
Apogee alt
471.6 km
Semi-major
6,848.9 km
B*
2.6117e-5
RAAN
233.1729°
Arg perigee
87.0344°
Mean anomaly
273.0809°
Rev number
23,519

§ Raw data

STARLINK-41081 52834U 22062E   26262.56643610  .00000445  00000+0  26117-4 0  99962 52834  53.1588 233.1729 0001319  87.0344 273.0809 15.31699140235199

JSON: /api/v1/satellites/52834 · /tle

For live sub-satellite position, see the globe view (requires WebGL).

§ Visibility from observer

Set your observer location to see the next 7 days of passes ≥ 10°. The values pass through the URL so the page stays shareable.

No JS? Fill the form by hand. The geolocation button needs JavaScript.